Eugene, Missouri, United States (65032)
Lat: 38.35N, Lon: 92.4W
Wx Zone: MOZ048
Local Info
Past Weather Observations for Today

NOTE: This archive is for the closest National Weather Service station to Eugene. Information may differ from the station used for current weather conditions.

Click here for Long-term Archive

Time Weather Temperature Dewpoint Humidity Pressure Winds Precip Visibility
13:35
Mostly Cloudy
81°F / 27°C 72°F / 22°C 74% 29.89 in
(1012 mb)
W 12.7 mph
(W 20 kph)
- 10SM
13:15
Mostly Cloudy
79°F / 26°C 72°F / 22°C 79% 29.89 in
(1012 mb)
W 8.1 mph
(W 13 kph)
- 10SM
12:55
Overcast
75°F / 24°C 70°F / 21°C 83% 29.89 in
(1012 mb)
W 11.5 mph
(W 19 kph)
0.08 in
(2.03 mm)
10SM
12:35
Mostly Cloudy
88°F / 31°C 64°F / 18°C 46% 29.89 in
(1012 mb)
SSW 13.8 mph
(SSW 22 kph)
- 9SM
12:15
Mostly Cloudy
91°F / 33°C 64°F / 18°C 41% 29.89 in
(1012 mb)
SSE 17.3 mph
(SSE 28 kph)
- 10SM
11:55
Mostly Cloudy
91°F / 33°C 66°F / 19°C 44% 29.89 in
(1012 mb)
S 15 mph
(S 24 kph)
- 10SM
11:35
Mostly Cloudy
88°F / 31°C 64°F / 18°C 46% 29.89 in
(1012 mb)
S 15 mph
(S 24 kph)
- 10SM
11:15
Mostly Cloudy
90°F / 32°C 64°F / 18°C 43% 29.89 in
(1012 mb)
S 13.8 mph
(S 22 kph)
- 10SM
10:55
Mostly Cloudy
88°F / 31°C 66°F / 19°C 49% 29.92 in
(1013 mb)
S 12.7 mph
(S 20 kph)
- 10SM
10:35
Clear
88°F / 31°C 66°F / 19°C 49% 29.92 in
(1013 mb)
S 10.4 mph
(S 17 kph)
- 10SM
10:15
Clear
86°F / 30°C 66°F / 19°C 52% 29.92 in
(1013 mb)
SE 8.1 mph
(SE 13 kph)
- 10SM
09:55
Clear
84°F / 29°C 66°F / 19°C 55% 29.92 in
(1013 mb)
SSE 9.2 mph
(SSE 15 kph)
- 10SM
09:35
Clear
82°F / 28°C 66°F / 19°C 58% 29.92 in
(1013 mb)
SSE 9.2 mph
(SSE 15 kph)
- 10SM
09:15
Partly Cloudy
81°F / 27°C 64°F / 18°C 58% 29.95 in
(1014 mb)
SSE 6.9 mph
(SSE 11 kph)
- 10SM
08:55
Clear
81°F / 27°C 64°F / 18°C 58% 29.95 in
(1014 mb)
SSE 8.1 mph
(SSE 13 kph)
- 10SM
08:35
Clear
79°F / 26°C 64°F / 18°C 61% 29.95 in
(1014 mb)
SSE 9.2 mph
(SSE 15 kph)
- 10SM
08:15
Partly Cloudy
77°F / 25°C 63°F / 17°C 61% 29.95 in
(1014 mb)
SSE 6.9 mph
(SSE 11 kph)
- 10SM
07:55
Clear
75°F / 24°C 63°F / 17°C 65% 29.95 in
(1014 mb)
S 6.9 mph
(S 11 kph)
- 10SM
07:35
Clear
73°F / 23°C 63°F / 17°C 69% 29.95 in
(1014 mb)
SSE 5.8 mph
(SSE 9 kph)
- 10SM
07:15
Clear
73°F / 23°C 63°F / 17°C 69% 29.95 in
(1014 mb)
SSE 5.8 mph
(SSE 9 kph)
- 10SM
06:55
Clear
72°F / 22°C 63°F / 17°C 73% 29.95 in
(1014 mb)
SE 5.8 mph
(SE 9 kph)
- 10SM
06:35
Clear
72°F / 22°C 63°F / 17°C 73% 29.95 in
(1014 mb)
SSE 5.8 mph
(SSE 9 kph)
- 10SM
06:15
Clear
70°F / 21°C 61°F / 16°C 73% 29.95 in
(1014 mb)
SSE 5.8 mph
(SSE 9 kph)
- 10SM
05:55
Clear
70°F / 21°C 61°F / 16°C 73% 29.95 in
(1014 mb)
SSE 4.6 mph
(SSE 7 kph)
- 10SM
05:35
Clear
70°F / 21°C 61°F / 16°C 73% 29.95 in
(1014 mb)
SSE 5.8 mph
(SSE 9 kph)
- 10SM
05:15
Clear
70°F / 21°C 61°F / 16°C 73% 29.95 in
(1014 mb)
SSE 4.6 mph
(SSE 7 kph)
- 10SM
04:55
Clear
72°F / 22°C 61°F / 16°C 69% 29.92 in
(1013 mb)
SSE 4.6 mph
(SSE 7 kph)
- 10SM
04:35
Clear
72°F / 22°C 61°F / 16°C 69% 29.92 in
(1013 mb)
SSE 4.6 mph
(SSE 7 kph)
- 10SM
04:15
Clear
70°F / 21°C 63°F / 17°C 78% 29.92 in
(1013 mb)
SSE 5.8 mph
(SSE 9 kph)
- 10SM
03:55
Clear
70°F / 21°C 63°F / 17°C 78% 29.92 in
(1013 mb)
SSE 3.5 mph
(SSE 6 kph)
- 10SM
03:35
Clear
72°F / 22°C 63°F / 17°C 73% 29.95 in
(1014 mb)
SE 5.8 mph
(SE 9 kph)
- 10SM
03:15
Clear
72°F / 22°C 63°F / 17°C 73% 29.95 in
(1014 mb)
SE 5.8 mph
(SE 9 kph)
- 10SM
02:55
Clear
72°F / 22°C 63°F / 17°C 73% 29.95 in
(1014 mb)
SSE 3.5 mph
(SSE 6 kph)
- 10SM
02:35
Clear
72°F / 22°C 63°F / 17°C 73% 29.95 in
(1014 mb)
SSE 4.6 mph
(SSE 7 kph)
- 10SM
02:15
Clear
73°F / 23°C 63°F / 17°C 69% 29.95 in
(1014 mb)
SE 5.8 mph
(SE 9 kph)
- 10SM
01:55
Clear
73°F / 23°C 63°F / 17°C 69% 29.95 in
(1014 mb)
S 4.6 mph
(S 7 kph)
- 10SM
01:35
Clear
73°F / 23°C 63°F / 17°C 69% 29.95 in
(1014 mb)
S 3.5 mph
(S 6 kph)
- 10SM
01:15
Clear
75°F / 24°C 63°F / 17°C 65% 29.95 in
(1014 mb)
S 3.5 mph
(S 6 kph)
- 10SM
00:55
Clear
75°F / 24°C 63°F / 17°C 65% 29.95 in
(1014 mb)
SSE 5.8 mph
(SSE 9 kph)
- 10SM
00:35
Clear
75°F / 24°C 63°F / 17°C 65% 29.95 in
(1014 mb)
S 5.8 mph
(S 9 kph)
- 10SM
00:15
Clear
75°F / 24°C 63°F / 17°C 65% 29.95 in
(1014 mb)
S 6.9 mph
(S 11 kph)
- 10SM
Time Weather Temperature Dewpoint Humidity Pressure Winds Precip Visibility


Weather for websites

WeatherForYou.com, LLC is not responsible for any damages or problems caused by this service. Current weather conditions are obtained from the closest station including government and personal stations which may have varying degrees of accuracy. Weather forecasts are derived from the NOAA NDFD. Like all things, this site belongs to Jesus Christ... He just trusts me to maintain it. If you have any questions or comments email webmaster@weatherforyou.com

Copyright © 2014, WeatherForYou.com LLC. All rights reserved.